Location: Ay?beleni
(36.6500°N, 30.3000°E)
Time: 23:28:41
(UTC+00:00)

Resurs 1-3 - Pass Details

Date: 09 April 2020
Orbit: 630 x 632 km, 97.9° (Epoch: 25 May)

Event Time Altitude Azimuth Distance (km) Brightness Sun altitude
Exits shadow 18:41:31 49° 228° (SW) 813 4.1 -25.6°
Maximum altitude 18:42:08 54° 260° (W) 769 4.2 -25.7°
Drops below altitude 10° 18:46:26 10° 338° (NNW) 2,019 6.9 -26.4°
Sets 18:48:41 0° 343° (NNW) 2,931 7.8 -26.8°
